www.pogodaiklimat.ru

Погода и климат >> Архив погоды >> Австралия >> Западная Австралия >> Дауоллину


ПОГОДА в Дауоллину

  • Прогноз погоды в Дауоллину
  • Монитор погоды в Дауоллину

АРХИВ ПОГОДЫ в Дауоллину

Время (UTC), дата Ветер
(напр.,м/с)
 
Видим.   Явления Облачность Т
(С)
Тd
(С)
f
(%)
Тe
(С)
Тes
(С)
Комфортность P
(гПа)
Po
(гПа)
Тmin
(С)
Tmax
(С)
R
(мм)
R24
(мм)
S
(см)
22 13.05 ЮВ 3 н/о н/о +8.8 +2.2 63 +7 +7 1023.5 985.2
01 14.05 СВ 5 н/о н/о +15.6 +1.0 37 +15 +15 1024.6 986.2 +7.7
04 14.05 С 6 н/о н/о +25.7 -1.2 17 +24 +24 комфорт 1023.1 984.8
07 14.05 СВ 4 н/о н/о +26.2 -2.4 15 +24 +24 комфорт 1021.3 983.1
10 14.05 В 2 н/о н/о +20.2 -2.2 22 +21 +21 комфорт 1022.2 983.9
13 14.05 штиль 0 н/о н/о +15.0 -2.4 30 +15 +15 1022.9 984.6 +27.4
16 14.05 С 3 н/о н/о +14.2 -2.7 31 +14 +14 1022.1 983.8
19 14.05 СВ 2 н/о н/о +11.9 -3.4 34 +11 +11 1021.3 983.1
22 14.05 СВ 3 н/о н/о +10.5 -3.6 37 +9 +9 1021.4 983.2
01 15.05 С 1 н/о н/о +15.1 -2.3 30 +17 +17 1022.8 984.5 +9.4
04 15.05 С 7 н/о н/о +26.9 -2.8 14 +24 +24 комфорт 1020.6 982.4
07 15.05 СЗ 6 н/о н/о +27.6 -5.5 11 +25 +25 комфорт 1018.6 980.5
10 15.05 С 2 н/о н/о +22.4 -6.4 14 +21 +21 комфорт 1019.2 981.0
13 15.05 ЮЗ 3 н/о н/о +18.5 -3.6 22 +19 +19 1019.9 981.7 +28.5
16 15.05 штиль 0 н/о н/о +12.2 -4.4 31 +12 +12 1019.1 980.9
19 15.05 С 3 н/о н/о +14.6 -1.5 33 +14 +14 1017.7 979.6
22 15.05 штиль 0 н/о н/о +11.0 -3.1 37 +11 +11 1018.1 980.0
01 16.05 З 4 н/о н/о +15.0 -1.5 32 +14 +14 1019.4 981.2 +10.7
04 16.05 ЮЗ 5 н/о н/о +19.8 +12.8 64 +21 +21 комфорт 1018.6 980.5
07 16.05 ЮЗ 4 н/о н/о +19.9 +11.9 60 +22 +22 комфорт 1018.1 980.0
10 16.05 Ю 9 н/о {туман} н/о +11.9 +11.0 94 +8 +8 1020.7 982.5
13 16.05 ЮВ 7 н/о {туман} н/о +10.0 +8.1 88 +6 +6 1023.1 984.8 +20.4
16 16.05 Ю 6 н/о н/о +8.3 +6.8 90 +4 +4 1023.4 985.1
19 16.05 Ю 6 н/о н/о +6.2 +4.7 90 +1 +1 1023.8 985.5
22 16.05 Ю 5 н/о н/о +3.6 +2.4 92 -2 -2 1024.8 986.4
01 17.05 ЮВ 7 н/о н/о +6.9 +4.2 83 +2 +2 1026.4 988.0 +3.5
04 17.05 ЮВ 8 н/о н/о +11.8 +4.3 60 +9 +9 1024.7 986.3
07 17.05 ЮВ 7 н/о н/о +12.9 0.0 41 +11 +11 1023.4 985.1
10 17.05 ЮВ 4 н/о н/о +8.3 +1.2 61 +5 +5 1024.5 986.1
13 17.05 Ю 4 н/о н/о +6.5 +1.6 71 +3 +3 1025.3 986.9 +14.1
16 17.05 ЮВ 2 н/о н/о +4.6 +1.6 81 +2 +2 1024.6 986.2
19 17.05 Ю 3 н/о н/о +3.2 +1.4 88 -1 -1 1023.9 985.6
22 17.05 Ю 3 н/о н/о +2.8 +1.5 91 -1 -1 1023.6 985.3
01 18.05 ЮВ 1 н/о н/о +8.0 +5.1 82 +7 +7 1025.1 986.7 +2.4
04 18.05 В 3 н/о н/о +12.3 +2.5 51 +11 +11 1023.4 985.1
07 18.05 ЮВ 4 н/о н/о +14.7 +2.9 45 +14 +14 1022.0 983.7
10 18.05 Ю 3 н/о н/о +10.7 +1.5 53 +9 +9 1022.2 983.9
13 18.05 ЮВ 2 н/о н/о +7.8 +2.1 67 +7 +7 1023.4 985.1 +15.0
16 18.05 С 2 н/о н/о +5.5 +1.2 74 +3 +3 1022.5 984.2
19 18.05 штиль 0 н/о н/о +3.8 +0.8 81 +3 +3 1021.6 983.3
22 18.05 СВ 2 н/о н/о +1.3 -0.3 89 -2 -2 1020.7 982.5
01 19.05 СВ 7 н/о н/о +9.5 +1.9 59 +6 +6 1021.4 983.2 +1.1
04 19.05 С 6 н/о н/о +18.0 -1.3 27 +17 +17 1019.0 980.8
07 19.05 С 5 н/о н/о +21.3 -1.9 21 +21 +21 комфорт 1016.4 978.3
10 19.05 С 1 н/о н/о +15.8 -2.2 29 +17 +17 1016.0 978.0
13 19.05 С 1 н/о н/о +12.5 -2.5 35 +13 +13 1016.5 978.4 +21.5
16 19.05 З 3 н/о н/о +11.1 -3.8 35 +10 +10 1016.1 978.1
19 19.05 СЗ 4 н/о н/о +10.4 +2.5 58 +8 +8 1014.9 976.9
22 19.05 СЗ 4 н/о н/о +10.7 +4.6 66 +9 +9 1015.8 977.8
01 20.05 СЗ 4 н/о н/о +15.4 +10.2 71 +14 +14 1018.0 979.9 +4.0
04 20.05 ЮЗ 4 н/о н/о +19.0 +15.3 79 +20 +20 1017.8 979.7
07 20.05 ЮЗ 5 н/о н/о +16.7 +14.3 86 +16 +16 1018.2 980.1
10 20.05 Ю 4 н/о н/о +15.8 +13.3 85 +15 +15 1019.9 981.7
13 20.05 ЮЗ 2 н/о н/о +14.8 +11.8 82 +14 +14 1021.2 983.0 +20.2
16 20.05 ЮЗ 3 н/о н/о +13.1 +9.4 78 +12 +12 1021.4 983.2
19 20.05 штиль 0 н/о н/о +8.8 +6.8 87 +8 +8 1021.4 983.2

 

Местоположение метеостанции Дауоллину (Западная Австралия, Австралия): широта -30.28 долгота 116.67 высота над уровнем моря 326 м.

В архиве по умолчанию представлена погода в Дауоллину за последнюю неделю. Архивные данные за месяц целиком и за предыдущие месяцы, начиная с января 2011 года, Вы можете получить, выбрав интересующий диапазон дат из раскрывающегося списка и нажав кнопку "Ввод!".


*Определитесь, кто Вы:
робот инопланетянин человек

Внимание! Время в таблицах - всемирное. Для получения местного времени необходимо прибавить поправку, которая равна 8 ч.

Смотрите также архив погоды в соседних городах и на ближайших метеорологических станциях:

Погода в Баджингарре (Западная Австралия, Австралия) (110 км)
Погода в Мораве (Западная Австралия, Австралия) (136 км)
Погода в Гингине (Западная Австралия, Австралия) (153 км)
Погода в Кандердине (Западная Австралия, Австралия) (158 км)
Погода в Буллсбрук Пирс (Западная Австралия, Австралия) (167 км)
Погода в Ошен Риф (Западная Австралия, Австралия) (187 км)
Погода в Гусберри Хилл (Западная Австралия, Австралия) (195 км)
Погода в Перте (Западная Австралия, Австралия) (196 км)
Погода в Перт Монт-Лоули (Западная Австралия, Австралия) (198 км)
Погода в Обсерватории Перт (Западная Австралия, Австралия) (200 км)

Пояснения к столбцам:

Ветер - указаны скорость ветра в м/с - средняя за 10 мин, порывы в срок и между сроками (в фигурных скобках) и направление, откуда дует ветер: С - северный, СВ - северо-восточный, В - восточный, ЮВ - юго-восточный, Ю - южный, ЮЗ - юго-западный, З - западный, СЗ - северо-западный.
Видимость - горизонтальная дальность видимости в метрах или километрах. При видимости от 1 до 10 км при отсутствии осадков обычно наблюдается дымка, при ухудшении видимости до 1 км и менее - туман. В сухую погоду видимость может ухудшаться дымом, пылью или мглою.
Явления - указаны атмосферные явления, наблюдавшиеся в срок или в последний час перед сроком; фигурными скобками обозначены явления, наблюдавшиеся между сроками (за 1-3 часа до срока); квадратными скобками обозначены град или гололедные отложения с указанием их диаметра в мм.
Облачность - указаны через наклонную черту общая и нижняя облачность в баллах и высота нижней границы облаков в метрах; квадратными скобками обозначены формы облаков: Ci - перистые, Cs - перисто-слоистые, Cc - перисто-кучевые, Ac - высококучевые, As - высокослоистые, Sc - слоисто-кучевые, Ns - слоисто-дождевые, Cu - кучевые, Cb - кучево-дождевые. Подробнее классификацию облаков см. в Атласе облаков (PDF).
T - Температура воздуха - температура, измеренная на высоте 2 м над землей.
Td - Температура точки росы - температура, при понижении до которой содержащийся в воздухе водяной пар достигнет насыщения.
f - Относительная влажность воздуха - влажноcть воздуха, измеренная на высоте 2 м над землей.
Te - Эффективная температура - температура, которую ощущает одетый по сезону человек в тени. Характеристика душности погоды. При расчете учитывается влияние влажности воздуха и скорости ветра на теплоощущения человека.
Tes - Эффективная температура на солнце - температура, которую ощущает человек, с поправкой на солнечный нагрев. Характеристика знойности погоды. Зависит от высоты солнца над горизонтом, облачности и скорости ветра. Ночью, в пасмурную погоду, а также при ветре 12 м/с и более поправка равна нулю.
P - Атмосферное давление - приведенное к уровню моря атмосферное давление.
Po - Атмосферное давление - измеренное на уровне метеостанции атмосферное давление.
Tmin - Минимальная температура - минимум температуры воздуха на высоте 2 м над землей.
Tmax - Максимальная температура - максимум температуры воздуха на высоте 2 м над землей.
R - Количество осадков - Количество выпавших осадков за период времени, мм. При наведении курсора мыши на число - период времени, за который выпало указанное количество осадков.
R24 - Количество осадков - Количество выпавших осадков за 24 часа, мм.
S - Снежный покров - Высота снежного покрова, см. При наведении курсора мыши на число - состояние снежного покрова и степень покрытия местности в баллах.